Regional Weather Roundup
Issued by NWS Boston, MA

Current Version | Previous Version | Text Only | Print | Product List | Glossary Off
Versions: 1 2 3 4 5 6 7 8 9 10 11 12 13 14 15 16 17 18 19 20 21 22 23 24 25 26 27 28
000 ASUS41 KBOX 191710 RWRBOX REGIONAL WEATHER ROUNDUP NATIONAL WEATHER SERVICE TAUNTON MA 100 PM EDT THU OCT 19 2017 NOTE: "FAIR" INDICATES FEW OR NO CLOUDS BELOW 12,000 FEET WITH NO SIGNIFICANT WEATHER AND/OR OBSTRUCTIONS TO VISIBILITY. MAZALL-191800- EASTERN MASSACHUSETTS CITY SKY/WX TMP DP RH WIND PRES REMARKS BOSTON MOSUNNY 73 48 41 SW18 30.12F BEVERLY MOSUNNY 72 49 44 SW12G22 30.11F LAWRENCE SUNNY 73 47 39 SW16G22 30.11F BEDFORD MOSUNNY 73 43 33 SW15G22 30.10F BLUE HILL N/A 70 46 42 SW17G28 30.13F NORWOOD SUNNY 74 49 41 S13G20 30.13F MARSHFIELD SUNNY 72 50 46 SW13G24 30.13F PLYMOUTH SUNNY 71 48 43 SW15G26 30.16F TAUNTON SUNNY 70 49 47 S10G22 30.17F NEW BEDFORD SUNNY 68 51 54 SW18G28 30.17F $$ MAZALL-191800- CAPE COD AND THE ISLANDS CITY SKY/WX TMP DP RH WIND PRES REMARKS FALMOUTH SUNNY 68 54 60 SW17G23 30.19F HYANNIS SUNNY 67 56 67 SW21G28 30.17F CHATHAM SUNNY 68 62 81 SW13G21 30.20F PROVINCETOWN SUNNY 68 55 63 SW15G22 30.17F NANTUCKET MOSUNNY 65 60 84 SW15 30.21F MARTHAS VNYRD MOSUNNY 67 59 75 SW15G23 30.20F $$ MAZALL-191800- CENTRAL AND WESTERN MASSACHUSETTS CITY SKY/WX TMP DP RH WIND PRES REMARKS WORCESTER SUNNY 68 39 34 SW18G25 30.14F FITCHBURG SUNNY 75 44 33 SW15G23 30.11F ORANGE SUNNY 69 44 40 SW13G22 30.11F SPRINGFIELD MOSUNNY 72 42 34 S16 30.10F WESTFIELD SUNNY 73 39 29 S17 30.11F NORTH ADAMS SUNNY 70 39 32 VRB7 30.09F PITTSFIELD SUNNY 67 36 31 SW15G21 30.11F $$ RIZALL-191800- RHODE ISLAND CITY SKY/WX TMP DP RH WIND PRES REMARKS PROVIDENCE MOSUNNY 72 48 42 SW15G21 30.17F NEWPORT SUNNY 66 57 72 S10G21 30.19F BLOCK ISLAND SUNNY 66 55 67 SW15G23 30.21F SMITHFIELD SUNNY 70 47 43 SW8 30.16F WESTERLY SUNNY 69 52 54 SW12 30.20F $$ CTZALL-191800- CONNECTICUT CITY SKY/WX TMP DP RH WIND PRES REMARKS BRADLEY INTL MOSUNNY 73 39 29 SW14 30.13F HARTFORD SUNNY 71 45 39 SW10G17 30.15F BRIDGEPORT SUNNY 69 48 47 SW12 30.18F DANBURY SUNNY 70 40 33 W17 30.18F GROTON SUNNY 68 54 60 SW13 30.19F NEW HAVEN SUNNY 68 49 50 SW12G18 30.19F CHESTER FAIR 68 48 49 SW14G22 30.19F MERIDEN SUNNY 69 44 40 S16G23 30.17F WILLIMANTIC SUNNY 71 46 40 SW12G17 30.16F OXFORD SUNNY 68 44 42 S7 30.18F $$ MEZ002-015-021-024-NHZ003-005-008-011-012-014-VTZ005-008-191800- NORTHERN NEW ENGLAND CITY SKY/WX TMP DP RH WIND PRES REMARKS PORTLAND ME MOSUNNY 66 51 58 S9 30.07F BANGOR ME MOSUNNY 69 51 52 S18G24 30.04F CONCORD NH SUNNY 74 43 32 S14 30.07F MANCHESTER NH MOSUNNY 72 45 37 S13G21 30.07F NASHUA NH SUNNY 71 44 37 SW8G16 30.10F PORTSMOUTH NH PTSUNNY 71 46 41 SW10 30.07F JAFFREY NH SUNNY 68 44 42 SW13G22 30.12F KEENE NH SUNNY 71 43 36 S13G21 30.09F BURLINGTON VT PTSUNNY 68 44 42 S16G26 29.95F MT. WASHINGTON MOSUNNY 45 28 53 SW35G41 N/A $$ NYZ052-076-191800- EASTERN NEW YORK CITY SKY/WX TMP DP RH WIND PRES REMARKS ALBANY MOSUNNY 69 46 43 S9 30.08F NEW YORK CITY MOSUNNY 69 41 36 SW15G22 30.19F $$ ANZALL-191800- MARINE OBSERVATIONS STATION/POSITION TIME TEMP WIND PRES VSBY WAVE AIR SEA DIR/SP/G HT/PER (UTC) (F) (DEG/KT/KT) (MB) (MI) (FT/S) BOSTON BUOY 1650 64 59 200/ 14/ 16 1020.0F 2/ 9 BUZZARDS BAY 1600 62 220/ 18/ 20 1023.6F NANTUCKET SOUND 1650 62 62 220/ 14/ 17 1022.4F 2/ 3 MASS BAY-STELLWA 1604 61 60 180/ 10/ 12 1020.3F 2/ 3 ISLE OF SHOALS 1600 60 190/ 17/ 18 1020.1F S OF BLOCK IS NOT AVBL $$ ......................KEY......................... SKY/WX - SKY CONDITION/PRESENT WEATHER TMP - TEMPERATURE IN FAHRENHEIT DWPT - DEWPOINT IN FAHRENHEIT RH - RELATIVE HUMIDITY IN PERCENT WIND - DIRECTION AND SPEED IN MPH PRES - MEAN SEA LEVEL PRESSURE IN INCHES OF HG WCI - WIND CHILL INDEX VSB - VISIBILITY IN MILES HX - HEAT INDEX TC - TEMPERATURE IN CELSIUS VRB - VARIABLE WIND DIRECTION N/A - NOT AVAILABLE

USA.gov is the U.S. government's official web portal to all federal, state and local government web resources and services.